TimeMST,TemperatureF,Dew PointF,Humidity,Sea Level PressureIn,VisibilityMPH,Wind Direction,Wind SpeedMPH,Gust SpeedMPH,PrecipitationIn,Events,Conditions,WindDirDegrees,DateUTC
12:15 AM,19.9,14.9,81,30.27,10.0,WNW,3.5,-,N/A,,Clear,290,2013-02-15 07:15:00
12:35 AM,20.1,15.1,81,30.28,10.0,West,3.5,-,N/A,,Clear,270,2013-02-15 07:35:00
12:55 AM,19.0,14.2,81,30.28,10.0,NW,3.5,-,N/A,,Clear,320,2013-02-15 07:55:00
1:15 AM,19.2,14.4,81,30.29,10.0,NW,3.5,-,N/A,,Clear,320,2013-02-15 08:15:00
1:35 AM,17.2,12.2,81,30.29,10.0,NNW,4.6,-,N/A,,Clear,330,2013-02-15 08:35:00
1:55 AM,17.2,12.2,81,30.29,10.0,NW,6.9,-,N/A,,Clear,310,2013-02-15 08:55:00
2:15 AM,16.9,12.4,82,30.29,10.0,NNW,9.2,-,N/A,,Clear,340,2013-02-15 09:15:00
2:35 AM,13.6,9.5,84,30.29,10.0,North,6.9,-,N/A,,Clear,350,2013-02-15 09:35:00
2:55 AM,12.7,9.1,86,30.29,10.0,NNW,6.9,-,N/A,,Clear,330,2013-02-15 09:55:00
3:15 AM,13.1,10.0,88,30.29,10.0,NW,6.9,-,N/A,,Clear,310,2013-02-15 10:15:00
3:35 AM,15.8,12.2,86,30.29,10.0,WNW,6.9,-,N/A,,Clear,300,2013-02-15 10:35:00
3:55 AM,15.4,12.4,88,30.29,10.0,NW,6.9,-,N/A,,Clear,310,2013-02-15 10:55:00
4:15 AM,14.5,11.5,88,30.29,10.0,NW,6.9,-,N/A,,Clear,320,2013-02-15 11:15:00
4:35 AM,13.1,9.9,87,30.30,10.0,NW,5.8,-,N/A,,Clear,310,2013-02-15 11:35:00
5:15 AM,13.1,10.8,90,30.30,10.0,NW,6.9,-,N/A,,Clear,310,2013-02-15 12:15:00
5:35 AM,11.7,9.0,89,30.30,10.0,NW,5.8,-,N/A,,Clear,320,2013-02-15 12:35:00
5:55 AM,14.0,11.3,89,30.30,10.0,WNW,8.1,-,N/A,,Clear,300,2013-02-15 12:55:00
6:15 AM,13.8,10.8,88,30.30,10.0,NW,6.9,-,N/A,,Clear,320,2013-02-15 13:15:00
6:35 AM,12.6,10.0,90,30.30,10.0,NW,6.9,-,N/A,,Clear,310,2013-02-15 13:35:00
6:55 AM,13.5,10.8,89,30.30,10.0,WNW,8.1,-,N/A,,Clear,300,2013-02-15 13:55:00
7:15 AM,14.7,11.5,87,30.32,10.0,NW,6.9,-,N/A,,Clear,310,2013-02-15 14:15:00
7:35 AM,15.1,11.3,85,30.33,10.0,NW,6.9,-,N/A,,Clear,320,2013-02-15 14:35:00
7:55 AM,14.5,10.6,84,30.33,10.0,NW,6.9,-,N/A,,Clear,320,2013-02-15 14:55:00
8:15 AM,20.1,14.4,78,30.34,10.0,NNW,6.9,-,N/A,,Clear,330,2013-02-15 15:15:00
8:35 AM,22.1,15.3,75,30.34,10.0,NW,5.8,-,N/A,,Clear,320,2013-02-15 15:35:00
8:55 AM,26.4,16.9,67,30.34,10.0,NW,5.8,-,N/A,,Clear,320,2013-02-15 15:55:00
9:15 AM,30.6,16.7,56,30.34,10.0,NNW,5.8,-,N/A,,Clear,340,2013-02-15 16:15:00
9:35 AM,34.5,16.5,48,30.34,10.0,North,5.8,-,N/A,,Clear,10,2013-02-15 16:35:00
9:55 AM,36.7,16.9,45,30.34,10.0,North,5.8,-,N/A,,Clear,350,2013-02-15 16:55:00
10:15 AM,38.1,16.7,42,30.34,10.0,North,3.5,-,N/A,,Clear,360,2013-02-15 17:15:00
10:55 AM,43.7,11.8,27,30.33,10.0,NW,15.0,20.7,N/A,,Clear,320,2013-02-15 17:55:00
11:15 AM,45.0,10.0,24,30.33,10.0,NNW,19.6,26.5,N/A,,Clear,330,2013-02-15 18:15:00
11:35 AM,45.5,10.8,24,30.33,10.0,NNW,18.4,25.3,N/A,,Clear,330,2013-02-15 18:35:00
11:55 AM,46.4,8.2,21,30.32,10.0,NNW,19.6,26.5,N/A,,Clear,330,2013-02-15 18:55:00
12:15 PM,47.1,7.0,20,30.32,10.0,NNW,21.9,26.5,N/A,,Clear,330,2013-02-15 19:15:00
12:35 PM,46.6,4.8,18,30.32,10.0,NNW,23.0,28.8,N/A,,Clear,330,2013-02-15 19:35:00
12:55 PM,47.1,3.6,17,30.32,10.0,North,20.7,29.9,N/A,,Clear,360,2013-02-15 19:55:00
1:15 PM,48.0,2.7,16,30.32,10.0,NW,24.2,31.1,N/A,,Clear,320,2013-02-15 20:15:00
1:35 PM,47.7,1.9,15,30.31,10.0,NNW,25.3,32.2,N/A,,Clear,330,2013-02-15 20:35:00
1:55 PM,47.8,4.8,17,30.31,10.0,NNW,19.6,33.4,N/A,,Clear,330,2013-02-15 20:55:00
2:15 PM,48.0,1.4,15,30.30,10.0,NNW,21.9,32.2,N/A,,Clear,330,2013-02-15 21:15:00
2:35 PM,48.4,1.8,15,30.30,10.0,NNW,18.4,32.2,N/A,,Clear,330,2013-02-15 21:35:00
2:55 PM,48.6,0.3,14,30.30,10.0,NNW,17.3,33.4,N/A,,Clear,340,2013-02-15 21:55:00
3:15 PM,48.6,-2.6,12,30.31,10.0,NNW,27.6,33.4,N/A,,Clear,340,2013-02-15 22:15:00
3:35 PM,47.8,-1.1,13,30.31,10.0,NNW,20.7,32.2,N/A,,Clear,330,2013-02-15 22:35:00
3:55 PM,47.7,-0.9,13,30.32,10.0,NNW,21.9,31.1,N/A,,Clear,340,2013-02-15 22:55:00
4:15 PM,46.9,0.5,15,30.32,10.0,NNW,20.7,27.6,N/A,,Clear,340,2013-02-15 23:15:00
4:35 PM,46.2,-0.2,15,30.32,10.0,NNW,21.9,27.6,N/A,,Clear,330,2013-02-15 23:35:00
4:55 PM,45.0,0.3,16,30.32,10.0,North,18.4,26.5,N/A,,Clear,350,2013-02-15 23:55:00
5:15 PM,44.2,1.0,17,30.32,10.0,NNW,19.6,23.0,N/A,,Clear,340,2013-02-16 00:15:00
5:35 PM,42.3,1.9,19,30.33,10.0,NNW,12.7,23.0,N/A,,Clear,340,2013-02-16 00:35:00
5:55 PM,40.3,2.8,21,30.33,10.0,NNW,12.7,-,N/A,,Clear,340,2013-02-16 00:55:00
6:15 PM,36.9,3.2,24,30.33,10.0,NNW,9.2,-,N/A,,Clear,330,2013-02-16 01:15:00
6:35 PM,36.9,4.1,25,30.35,10.0,NNW,5.8,-,N/A,,Clear,330,2013-02-16 01:35:00
6:55 PM,33.8,3.9,28,30.36,10.0,NNE,4.6,-,N/A,,Clear,20,2013-02-16 01:55:00
7:15 PM,33.1,4.1,29,30.36,10.0,North,8.1,-,N/A,,Clear,360,2013-02-16 02:15:00
7:35 PM,32.7,3.7,29,30.36,10.0,North,5.8,-,N/A,,Clear,360,2013-02-16 02:35:00
7:55 PM,34.0,3.0,27,30.37,10.0,North,8.1,-,N/A,,Clear,350,2013-02-16 02:55:00
8:15 PM,32.4,1.9,28,30.37,10.0,North,6.9,-,N/A,,Clear,350,2013-02-16 03:15:00
8:35 PM,31.5,2.1,29,30.38,10.0,North,6.9,-,N/A,,Clear,10,2013-02-16 03:35:00
8:55 PM,32.4,2.3,28,30.39,10.0,NNE,9.2,-,N/A,,Clear,20,2013-02-16 03:55:00
9:15 PM,33.3,2.3,27,30.40,10.0,North,5.8,-,N/A,,Clear,360,2013-02-16 04:15:00
9:35 PM,30.4,3.2,32,30.41,10.0,WNW,5.8,-,N/A,,Clear,300,2013-02-16 04:35:00
9:55 PM,28.9,3.4,34,30.41,10.0,North,6.9,-,N/A,,Clear,350,2013-02-16 04:55:00
10:15 PM,23.7,4.1,43,30.42,10.0,NW,9.2,-,N/A,,Clear,320,2013-02-16 05:15:00
10:35 PM,27.3,5.0,39,30.43,10.0,WNW,11.5,-,N/A,,Clear,300,2013-02-16 05:35:00
10:55 PM,28.0,5.7,39,30.43,10.0,WNW,11.5,16.1,N/A,,Clear,300,2013-02-16 05:55:00
11:15 PM,25.3,5.5,43,30.43,10.0,Calm,Calm,-,N/A,,Clear,0,2013-02-16 06:15:00
11:35 PM,23.0,6.1,48,30.43,10.0,West,4.6,-,N/A,,Clear,270,2013-02-16 06:35:00
11:55 PM,23.0,7.0,50,30.43,10.0,Calm,Calm,-,N/A,,Clear,0,2013-02-16 06:55:00